Terminal Aerodrome Forecast
Issued by NWS Pittsburgh, PA

Current Version | Previous Version | Graphics & Text | Print | Product List | Glossary On
Versions: 1 2 3 4 5 6 7 8 9 10 11 12 13 14 15 16 17 18 19 20 21 22 23 24 25 26 27 28 29 30 31 32 33 34 35 36 37 38 39
000
FTUS41 KPBZ 221136
TAFPIT
TAF
KPIT 221136Z 2212/2318 02010KT 3SM -RA OVC008
     FM221800 05010G18KT P6SM OVC010
     FM230200 05008KT P6SM OVC010
     FM231300 09010KT 6SM -RA OVC010=

USA.gov is the U.S. government's official web portal to all federal, state and local government web resources and services.